[[{"header":{"parameterUnit":"m.s-1","parameterCategory":1,"la1":30.2991,"la2":30.254,"lo1":-89.0895,"lo2":-89.0444,"dy":0.0017,"dx":0.0017,"nx":28,"ny":28,"refTime":"2023-10-13T03:00:00:Z","depth":0,"parameterNumber":2,"parameterNumberName":"U-component_of_WINDS"},"data":[0,0,0,0,0,0,0,0,0,0,0,0,0,0,0,0,0,0,0,0,0,0,0,0,0,0,0,0,0,0,0,0,0,0,0,0,0,0,0,0,0,0,0,0,0,0,0,0,0,0,0,0,0,0,0,0,0,0,-0.0552,-0.0552,0,-0.0514,-0.0513,-0.0513,-0.0434,-0.0432,-0.0431,-0.0429,-0.0392,-0.0392,-0.0393,0,0,0,0,0,0,0,0,0,0,0,0,0,-0.056,-0.056,-0.0553,-0.0552,-0.0552,-0.0514,-0.0513,-0.0513,-0.0434,-0.0432,-0.043,-0.0428,-0.0392,-0.0392,-0.0393,0,0,0,0,0,0,0,0,0,0,0,0,0,-0.0543,-0.056,-0.0553,-0.0508,-0.0503,-0.0514,-0.0513,-0.0513,-0.0435,-0.0432,-0.043,-0.0428,-0.0392,-0.0392,-0.0393,-0.0445,0,0,-0.0395,-0.0396,0,0,0,0,0,0,0,0,-0.0544,-0.0543,-0.0515,-0.0511,-0.0506,-0.0476,-0.0502,-0.049,-0.0435,-0.0461,-0.0429,-0.0426,-0.0422,-0.042,-0.0418,-0.0443,-0.0442,-0.0395,-0.0396,-0.0396,-0.0396,0,0,0,0,0,0,0,-0.0545,-0.0544,-0.0537,-0.0514,-0.0509,-0.049,-0.0485,-0.05,-0.0455,-0.0458,-0.0452,-0.0449,-0.0419,-0.0418,-0.0417,-0.0441,-0.0395,-0.0396,-0.0396,-0.0397,-0.0507,-0.051,0,0,0,0,0,0,-0.0553,-0.0545,-0.0538,-0.0536,-0.0519,-0.0492,-0.0486,-0.0488,-0.0455,-0.0447,-0.0451,-0.0445,-0.0418,-0.0416,-0.0415,-0.0474,-0.0396,-0.0397,-0.0397,-0.0505,-0.0508,-0.0511,0,0,0,0,0,0,-0.0553,-0.0553,-0.054,-0.0539,-0.0536,-0.0494,-0.0497,-0.0489,-0.0487,-0.0449,-0.0441,-0.0457,-0.0416,-0.0414,-0.0438,-0.0472,-0.0397,-0.0398,-0.0502,-0.0506,-0.0509,-0.0593,0,0,0,0,0,0,-0.0554,-0.0553,-0.0572,-0.054,-0.0536,-0.0563,-0.0499,-0.049,-0.0488,-0.048,-0.0453,-0.0446,-0.0414,-0.0438,-0.0439,-0.0471,-0.0398,-0.0499,-0.0504,-0.0508,-0.0587,-0.0599,-0.0609,0,0,0,0,0,-0.0554,-0.0598,-0.0574,-0.0573,-0.0559,-0.0565,-0.0563,-0.0524,-0.0491,-0.051,-0.0486,-0.0447,-0.0468,-0.0441,-0.0442,-0.0475,-0.0497,-0.0502,-0.0508,-0.0582,-0.0597,-0.0609,0,0,0,0,0,0,-0.0636,-0.0593,-0.0566,-0.06,-0.0587,-0.0552,-0.0575,-0.0541,-0.0538,-0.0531,-0.0483,-0.0477,-0.0508,-0.0493,-0.0464,-0.0524,-0.0476,-0.0482,-0.0532,-0.0546,-0.0557,-0.056,-0.0399,0,0,0,0,0,-0.0658,-0.0666,-0.0628,-0.0662,-0.0657,-0.0617,-0.0619,-0.0589,-0.0574,-0.0569,-0.0546,-0.0533,-0.0537,-0.054,-0.0541,-0.0584,-0.0577,-0.0607,-0.0619,-0.0628,-0.0634,-0.0656,-0.0669,-0.0529,-0.0529,-0.0529,0,0,-0.0704,-0.0681,-0.0689,-0.0678,-0.0665,-0.0675,-0.0613,-0.0627,-0.0634,-0.0571,-0.0592,-0.0575,-0.0558,-0.0592,-0.0605,-0.0581,-0.0671,-0.0635,-0.0643,-0.0644,-0.0663,-0.0677,-0.0688,-0.0533,-0.0532,-0.0532,0,0,-0.0793,-0.0776,-0.0803,-0.079,-0.077,-0.0743,-0.075,-0.072,-0.0706,-0.0726,-0.0679,-0.0687,-0.0694,-0.0684,-0.068,-0.0764,-0.0729,-0.0766,-0.0825,-0.0846,-0.0857,-0.0867,-0.0898,-0.0909,-0.0772,-0.0772,-0.0772,0,-0.0852,-0.0865,-0.0821,-0.0837,-0.0834,-0.0776,-0.0803,-0.0793,-0.0775,-0.0774,-0.0747,-0.0754,-0.0738,-0.0769,-0.079,-0.0788,-0.0794,-0.0769,-0.0859,-0.0868,-0.0877,-0.0906,-0.0917,-0.0777,-0.0776,-0.0776,-0.0775,0,-0.094,-0.0949,-0.0973,-0.0956,-0.0955,-0.0977,-0.0937,-0.0942,-0.0912,-0.0889,-0.091,-0.0889,-0.0885,-0.089,-0.0862,-0.0917,-0.0902,-0.0868,-0.0819,-0.0896,-0.0922,-0.0932,-0.0783,-0.0782,-0.078,-0.0779,0,0,-0.108,-0.1037,-0.1047,-0.1039,-0.1012,-0.1019,-0.1038,-0.1033,-0.1038,-0.1028,-0.1043,-0.105,-0.1018,-0.1013,-0.0983,-0.1002,-0.1071,-0.0965,-0.0964,-0.0986,-0.1131,-0.1158,-0.1171,-0.1047,-0.1049,-0.105,-0.1133,0,-0.1163,-0.1193,-0.1153,-0.1192,-0.1201,-0.1146,-0.1162,-0.1148,-0.1127,-0.1131,-0.1107,-0.1113,-0.107,-0.1067,-0.1083,-0.1059,-0.11,-0.1053,-0.1062,-0.1063,-0.1069,-0.1185,-0.1213,-0.1292,-0.1143,-0.1144,-0.1145,0,-0.1264,-0.1257,-0.1297,-0.1268,-0.127,-0.1286,-0.1278,-0.1283,-0.1266,-0.1249,-0.1243,-0.1207,-0.1225,-0.1177,-0.12,-0.1169,-0.1171,-0.116,-0.1162,-0.1162,-0.1109,-0.1189,-0.1316,-0.1328,-0.1161,-0.116,-0.1159,0,-0.1363,-0.1364,-0.1388,-0.1382,-0.1348,-0.1361,-0.1348,-0.1328,-0.1328,-0.1321,-0.1321,-0.1317,-0.1315,-0.1313,-0.1277,-0.1245,-0.1305,-0.1254,-0.1293,-0.1294,-0.1308,-0.1308,-0.1439,-0.1308,-0.1308,-0.1308,-0.1308,0,-0.1461,-0.1487,-0.1432,-0.1447,-0.1475,-0.1429,-0.1459,-0.144,-0.1423,-0.1434,-0.1386,-0.1397,-0.1348,-0.1355,-0.1327,-0.1351,-0.135,-0.1337,-0.133,-0.1342,-0.1344,-0.1343,-0.1337,-0.1311,-0.131,-0.131,-0.1309,0,-0.1577,-0.154,-0.1563,-0.1529,-0.1521,-0.1543,-0.1514,-0.1527,-0.1502,-0.1516,-0.1516,-0.1478,-0.1482,-0.1446,-0.1444,-0.1425,-0.1463,-0.1446,-0.1469,-0.1464,-0.1504,-0.1501,-0.1639,-0.1655,-0.1514,-0.1516,-0.1517,0,-0.1642,-0.1661,-0.1628,-0.1632,-0.162,-0.1626,-0.1625,-0.1581,-0.1583,-0.1565,-0.158,-0.158,-0.1578,-0.1589,-0.1561,-0.1559,-0.1542,-0.159,-0.1541,-0.1553,-0.1543,-0.1543,-0.1545,-0.1601,-0.1603,-0.1604,-0.1605,0,-0.1761,-0.1742,-0.1742,-0.1736,-0.1736,-0.173,-0.172,-0.1726,-0.1678,-0.1682,-0.1686,-0.1684,-0.1682,-0.1683,-0.1676,-0.1663,-0.1627,-0.1621,-0.1629,-0.1643,-0.1656,-0.165,-0.1498,-0.1618,-0.1617,-0.1616,-0.1615,-0.1615,-0.1854,-0.1868,-0.1848,-0.1849,-0.1837,-0.1829,-0.1839,-0.1815,-0.1817,-0.1812,-0.1785,-0.1794,-0.1777,-0.1763,-0.1753,-0.176,-0.1737,-0.1749,-0.1753,-0.1757,-0.1764,-0.1654,-0.1758,-0.1758,-0.1758,-0.1757,-0.1757,0,-0.1971,-0.1955,-0.1957,-0.1945,-0.1946,-0.1911,-0.1898,-0.1902,-0.191,-0.1896,-0.1895,-0.19,-0.1901,-0.1873,-0.1871,-0.1882,-0.1865,-0.1883,-0.1882,-0.1879,-0.1785,-0.1778,-0.1896,-0.1896,-0.1896,-0.1896,-0.1896,-0.1896,-0.2032,-0.2055,-0.2034,-0.205,-0.2033,-0.2041,-0.2037,-0.203,-0.2018,-0.2025,-0.2026,-0.2007,-0.1988,-0.1984,-0.1983,-0.1975,-0.1977,-0.2001,-0.1987,-0.1899,-0.1886,-0.1873,-0.1866,-0.2001,-0.2001,-0.2081,-0.2081,-0.2082]},{"header":{"parameterUnit":"m.s-1","parameterCategory":1,"la1":30.2991,"la2":30.254,"lo1":-89.0895,"lo2":-89.0444,"dy":0.0017,"dx":0.0017,"nx":28,"ny":28,"refTime":"2023-10-13T03:00:00:Z","depth":0,"parameterNumber":3,"parameterNumberName":"V-component_of_WINDS"},"data":[0,0,0,0,0,0,0,0,0,0,0,0,0,0,0,0,0,0,0,0,0,0,0,0,0,0,0,0,0,0,0,0,0,0,0,0,0,0,0,0,0,0,0,0,0,0,0,0,0,0,0,0,0,0,0,0,0,0,0.3142,0.3141,0,0.31,0.3099,0.3099,0.3099,0.31,0.31,0.3101,0.3056,0.3055,0.3053,0,0,0,0,0,0,0,0,0,0,0,0,0,0.3222,0.3221,0.3142,0.3141,0.3141,0.31,0.3099,0.3099,0.3099,0.31,0.31,0.3101,0.3057,0.3055,0.3053,0,0,0,0,0,0,0,0,0,0,0,0,0,0.3184,0.322,0.3142,0.3136,0.3135,0.31,0.3099,0.3098,0.3099,0.31,0.3101,0.3101,0.3057,0.3055,0.3052,0.302,0,0,0.3045,0.3043,0,0,0,0,0,0,0,0,0.3187,0.3181,0.3138,0.3137,0.3135,0.3106,0.3111,0.3072,0.3099,0.3113,0.3101,0.3102,0.3072,0.3068,0.3058,0.3017,0.3016,0.3044,0.3043,0.3042,0.3041,0,0,0,0,0,0,0,0.3189,0.3183,0.3125,0.3137,0.3136,0.3135,0.3131,0.3104,0.3088,0.3112,0.3111,0.3106,0.3071,0.3061,0.3057,0.3015,0.3044,0.3042,0.3041,0.304,0.2944,0.2943,0,0,0,0,0,0,0.3193,0.3185,0.3126,0.3124,0.3164,0.3133,0.3128,0.3114,0.3088,0.3085,0.3106,0.3107,0.3065,0.306,0.3056,0.3014,0.3042,0.3039,0.3038,0.2945,0.2944,0.2943,0,0,0,0,0,0,0.3195,0.3188,0.3128,0.3155,0.3147,0.3131,0.3115,0.3113,0.3102,0.3084,0.3081,0.3098,0.3065,0.3059,0.3028,0.3013,0.3038,0.3036,0.2946,0.2945,0.2943,0.2932,0,0,0,0,0,0,0.3197,0.3189,0.3176,0.3154,0.3146,0.3102,0.3114,0.3112,0.3098,0.3099,0.3076,0.3073,0.3065,0.3032,0.3026,0.301,0.3034,0.2948,0.2946,0.2944,0.2934,0.2931,0.2928,0,0,0,0,0,0.32,0.3174,0.3175,0.3168,0.313,0.3101,0.3096,0.3088,0.3097,0.3084,0.3072,0.3073,0.3016,0.3029,0.3022,0.3005,0.2949,0.2946,0.2944,0.2935,0.2931,0.2928,0,0,0,0,0,0,0.3194,0.3172,0.3172,0.3139,0.3122,0.3101,0.3084,0.3084,0.3064,0.3066,0.3057,0.3052,0.3021,0.301,0.3025,0.2971,0.2983,0.298,0.2979,0.2975,0.2972,0.2974,0.3032,0,0,0,0,0,0.3189,0.3168,0.3149,0.3122,0.3113,0.31,0.3088,0.3083,0.3065,0.3058,0.3044,0.3026,0.3004,0.2989,0.2968,0.2933,0.2928,0.2918,0.2915,0.2913,0.2909,0.2888,0.2884,0.2936,0.2936,0.2936,0,0,0.3178,0.3163,0.315,0.312,0.3106,0.3084,0.3094,0.307,0.3054,0.3054,0.3024,0.3013,0.2992,0.2959,0.2944,0.2949,0.2893,0.291,0.2908,0.2905,0.2886,0.2881,0.2876,0.2934,0.2934,0.2935,0,0,0.3146,0.3134,0.3109,0.3095,0.3074,0.3066,0.306,0.3039,0.3032,0.3002,0.3002,0.2982,0.2944,0.2929,0.2916,0.288,0.288,0.2873,0.2856,0.2837,0.2833,0.2829,0.2814,0.2809,0.287,0.287,0.287,0,0.3135,0.3102,0.3096,0.3071,0.3058,0.3058,0.3033,0.302,0.2993,0.2983,0.299,0.2943,0.2929,0.2892,0.2883,0.2873,0.2865,0.2875,0.2834,0.283,0.2827,0.2812,0.2807,0.2869,0.2869,0.2869,0.287,0,0.3088,0.3065,0.3048,0.3022,0.3006,0.2982,0.2972,0.2957,0.2954,0.2945,0.2914,0.2898,0.2873,0.2864,0.2862,0.2827,0.283,0.2836,0.2847,0.2821,0.2807,0.2802,0.2868,0.2868,0.2869,0.2869,0,0,0.305,0.3022,0.3015,0.3003,0.2981,0.2962,0.2938,0.2914,0.2901,0.2883,0.2861,0.283,0.2834,0.282,0.2816,0.2799,0.277,0.2807,0.2806,0.2799,0.2728,0.2723,0.2717,0.2771,0.277,0.2769,0.273,0,0.3014,0.297,0.2964,0.2925,0.2903,0.2904,0.2882,0.2866,0.2857,0.2837,0.2827,0.2804,0.2813,0.2805,0.2788,0.2777,0.2755,0.278,0.2749,0.2748,0.2752,0.271,0.2704,0.2668,0.2724,0.2724,0.2723,0,0.2966,0.2947,0.2905,0.2885,0.2876,0.2857,0.2834,0.2815,0.2797,0.2792,0.2776,0.2774,0.2748,0.2763,0.2726,0.2743,0.2731,0.2723,0.2722,0.2717,0.2732,0.2702,0.2656,0.265,0.2715,0.2716,0.2716,0,0.294,0.2904,0.2874,0.2864,0.2841,0.2827,0.2817,0.2799,0.2785,0.2766,0.2756,0.2734,0.2721,0.2704,0.2696,0.2707,0.2659,0.2673,0.2653,0.2653,0.2641,0.2641,0.259,0.2637,0.2637,0.2637,0.2637,0,0.2899,0.2873,0.2862,0.2843,0.2814,0.2808,0.278,0.277,0.2754,0.2734,0.2734,0.2714,0.2706,0.2685,0.2679,0.2649,0.2644,0.2638,0.2636,0.2636,0.2637,0.2626,0.2628,0.2635,0.2636,0.2636,0.2636,0,0.2864,0.2855,0.2823,0.2804,0.2798,0.2778,0.2761,0.2743,0.2735,0.2709,0.2702,0.269,0.2665,0.2656,0.2626,0.2622,0.2587,0.2588,0.2593,0.2592,0.2571,0.2573,0.251,0.2501,0.2555,0.2555,0.2554,0,0.2838,0.2818,0.2797,0.2783,0.2772,0.275,0.2735,0.2729,0.2714,0.2692,0.2676,0.2652,0.2632,0.2593,0.2581,0.2558,0.2557,0.2537,0.2554,0.2555,0.2555,0.2555,0.2552,0.2533,0.2533,0.2532,0.2532,0,0.2791,0.2788,0.2767,0.2745,0.2728,0.271,0.2693,0.2681,0.2673,0.2656,0.2631,0.2615,0.2585,0.2561,0.2537,0.2526,0.2527,0.2527,0.2521,0.252,0.2522,0.2519,0.2582,0.2528,0.2528,0.2529,0.2529,0.2529,0.2758,0.274,0.2722,0.2699,0.2685,0.2669,0.2651,0.2641,0.262,0.2595,0.2593,0.2566,0.2548,0.2517,0.2505,0.2483,0.2489,0.248,0.2478,0.2475,0.2472,0.2528,0.248,0.248,0.248,0.248,0.248,0,0.2709,0.2698,0.2677,0.2653,0.2635,0.2638,0.262,0.2604,0.258,0.2564,0.2544,0.2515,0.2492,0.2478,0.2454,0.244,0.2439,0.2433,0.2433,0.243,0.247,0.2477,0.2434,0.2434,0.2434,0.2434,0.2434,0.2434,0.2682,0.2651,0.2646,0.2608,0.2597,0.2571,0.2559,0.2544,0.2531,0.2499,0.2479,0.2471,0.2456,0.2431,0.2409,0.2406,0.2396,0.239,0.2387,0.2423,0.2428,0.2432,0.2438,0.2388,0.2388,0.2348,0.2348,0.2348]}]]